Weather History for Pompano Beach, FL

Change the Weather History Date:

Wednesday, January 30, 2013

  Actual Average Record
Temperature  
Mean Temperature 75 °F -  
Max Temperature 78 °F 77 °F 87 °F (1949)
Min Temperature 72 °F 56 °F 31 °F (1978)
Cooling Degree Days 10    
Growing Degree Days 25 (Base 50)    
Moisture  
Dew Point 66 °F    
Average Humidity 74    
Maximum Humidity 91    
Minimum Humidity 62    
Precipitation  
Precipitation 0.00 in - - ()
Sea Level Pressure  
Sea Level Pressure 30.06 in    
Wind  
Wind Speed 14 mph (SSE)    
Max Wind Speed 20 mph    
Max Gust Speed 28 mph    
Visibility 10 miles    
Events      
Averages and records for this station are not official NWS values.
T = Trace of Precipitation, MM = Missing Value Source: NWS Daily Summary

Daily Weather History Graph

Daily Weather History Graph

Search for Another Location

Airport:

Trip Planner

Search our weather history database for the weather conditions in past years. The results will help you decide how hot, cold, wet, or windy it might be!

Date:

Astronomy

Jan. 30, 2013 Rise Set
Actual Time 7:05 AM EST 6:02 PM EST
Civil Twilight 6:41 AM EST 6:26 PM EST
Nautical Twilight 6:13 AM EST 6:54 PM EST
Astronomical Twilight 5:46 AM EST 7:21 PM EST
Moon 9:30 PM EST (1/30) 8:58 AM EST (1/30)
Length of Visible Light 11h 44m
Length of Day
10h 56m
Waning Gibbous, 88% of the Moon is Illuminated
Jan 30
Waning Gibbous
Feb 3
Last Quarter
Feb 10
New
Feb 17
First Quarter
Feb 25
Full

Hourly Weather History & Observations

Time (EST) Temp. Dew Point Humidity Pressure Visibility Wind Dir Wind Speed Gust Speed Precip Events Conditions
12:53 AM 73.0 °F 64.0 °F 73% 30.12 in 10.0 mi SE 19.6 mph 25.3 mph N/A   Partly Cloudy
1:53 AM 73.0 °F 64.0 °F 73% 30.12 in 10.0 mi SE 15.0 mph 24.2 mph N/A   Scattered Clouds
2:53 AM 73.0 °F 64.9 °F 76% 30.11 in 10.0 mi SE 12.7 mph - N/A   Scattered Clouds
3:53 AM 72.0 °F 64.0 °F 76% 30.11 in 10.0 mi SE 11.5 mph - N/A   Scattered Clouds
4:53 AM 72.0 °F 64.0 °F 76% 30.09 in 10.0 mi SE 15.0 mph 20.7 mph N/A   Clear
5:53 AM 72.0 °F 64.0 °F 76% 30.09 in 10.0 mi SE 11.5 mph - N/A   Scattered Clouds
6:53 AM 72.0 °F 63.0 °F 73% 30.11 in 10.0 mi SE 11.5 mph - N/A   Scattered Clouds
7:53 AM 73.0 °F 64.0 °F 73% 30.11 in 10.0 mi SE 15.0 mph 19.6 mph N/A   Partly Cloudy
8:53 AM 75.0 °F 63.0 °F 66% 30.11 in 10.0 mi SE 16.1 mph 23.0 mph N/A   Partly Cloudy
9:53 AM 77.0 °F 64.0 °F 64% 30.12 in 10.0 mi SE 17.3 mph 23.0 mph N/A   Partly Cloudy
10:53 AM 78.1 °F 64.0 °F 62% 30.09 in 10.0 mi SE 18.4 mph 26.5 mph N/A   Partly Cloudy
11:53 AM 78.1 °F 64.0 °F 62% 30.06 in 10.0 mi SSE 19.6 mph 26.5 mph N/A   Clear
12:53 PM 78.1 °F 66.0 °F 66% 30.01 in 10.0 mi SSE 16.1 mph 27.6 mph N/A   Partly Cloudy
1:53 PM 78.1 °F 66.0 °F 66% 30.00 in 10.0 mi SSE 17.3 mph 25.3 mph N/A   Mostly Cloudy
3:53 PM 77.0 °F 64.9 °F 66% 30.01 in 10.0 mi South 13.8 mph 21.9 mph N/A   Scattered Clouds
4:53 PM 77.0 °F 66.0 °F 69% 30.03 in 10.0 mi SSE 10.4 mph - N/A   Overcast
5:53 PM 75.9 °F 66.0 °F 71% 30.01 in 10.0 mi SSE 11.5 mph - N/A   Clear
6:53 PM 73.9 °F 68.0 °F 82% 30.00 in 10.0 mi South 9.2 mph - N/A   Clear
7:53 PM 73.0 °F 68.0 °F 84% 30.01 in 10.0 mi South 4.6 mph - N/A   Clear
8:53 PM 73.0 °F 69.1 °F 87% 30.01 in 10.0 mi South 4.6 mph - N/A   Clear
9:53 PM 72.0 °F 69.1 °F 91% 30.02 in 10.0 mi South 3.5 mph - N/A   Partly Cloudy
10:53 PM 73.0 °F 69.1 °F 87% 30.01 in 10.0 mi South 6.9 mph - N/A   Clear
11:53 PM 73.9 °F 69.1 °F 85% 30.01 in 10.0 mi South 6.9 mph - N/A   Clear